Wind_Speed
8 7 9 11 10 12 14 14 12 11 12 15 12 9 10 10 9 11 14 15 11 15 14 14 14 13 14 10 10 16 16 16 16 16 14 12 13 14 14 15 15 15 14 17 23 26 30 32 33 32 31 31 31 32 34 34 35 34 33 34 34 36 36 33 31 32 31 29 27 26 25 25 26 26 22 20 19 19 19 20 20 19 18 16 14 16
8 10 13 13 12 12 14 15 14 13 14 15 12 9 8 9 9 12 14 15 10 11 13 14 13 14 14 10 12 15 17 19 17 16 16 15 14 13 14 16 16 13 12 16 19 23 29 31 33 33 31 32 31 33 35 34 35 34 33 33 34 36 37 35 33 33 33 31 30 29 26 25 25 26 25 21 19 19 19 18 19 19 18 17 15 15
9 13 16 14 12 13 13 14 16 16 15 13 10 9 7 6 7 11 14 16 11 7 10 16 13 11 12 11 14 15 15 18 19 18 18 17 16 14 15 15 15 14 13 16 16 18 26 30 32 32 31 34 32 33 37 35 35 35 33 32 33 35 38 36 35 33 33 32 31 30 26 25 24 24 25 21 19 20 20 19 19 19 19 17 16 16
10 13 15 14 12 15 15 15 16 15 13 10 9 8 8 9 7 7 11 15 12 5 9 15 11 7 9 8 11 16 15 15 18 19 17 17 17 16 17 16 16 18 16 17 17 16 21 27 30 30 31 34 32 32 36 36 37 36 34 34 33 35 37 37 36 34 32 30 30 29 25 23 22 22 23 22 20 19 20 22 22 21 21 19 17 17
13 9 12 16 15 16 16 15 15 12 10 11 12 10 8 12 13 9 8 11 10 7 10 11 6 4 7 8 8 11 15 16 18 18 16 16 18 17 17 17 17 19 17 18 19 17 17 22 27 29 31 34 33 33 36 38 39 37 36 36 35 35 37 37 37 36 32 29 29 28 24 22 21 22 23 22 23 21 20 23 24 23 22 20 18 17
15 9 13 18 17 16 16 14 15 12 8 10 14 14 13 13 14 15 12 8 5 6 9 10 5 3 8 11 9 8 11 15 17 18 18 17 18 18 16 17 17 17 17 18 19 18 16 19 24 28 31 32 32 34 37 39 40 38 37 37 37 35 37 37 37 38 34 31 31 30 27 26 23 25 28 27 28 27 23 23 25 24 23 22 20 18
11 12 12 16 17 17 16 13 15 14 8 8 11 14 17 15 14 16 15 7 4 5 9 12 7 3 7 11 11 11 12 15 17 19 20 19 16 17 16 16 17 16 15 16 17 18 17 18 21 25 31 33 33 35 37 37 38 38 37 37 39 37 36 37 38 38 37 33 34 33 31 30 28 27 30 31 30 30 27 24 24 25 24 23 21 20
11 15 14 15 17 16 14 11 13 15 10 7 9 14 17 17 16 16 13 8 4 3 7 12 10 4 5 9 12 15 15 15 18 19 20 20 17 18 18 18 19 18 17 16 15 17 17 18 20 24 32 35 34 35 36 36 37 39 38 38 41 39 36 37 38 40 39 36 35 35 32 31 31 28 30 32 30 30 29 26 24 25 26 25 24 23
12 17 17 16 15 11 11 12 12 15 12 7 10 13 15 16 16 15 11 7 5 3 4 10 11 6 3 6 10 15 15 15 16 15 19 22 20 19 20 20 20 20 19 18 17 18 18 19 23 28 32 34 33 34 36 36 37 40 39 38 41 41 38 37 38 40 41 38 36 35 33 31 31 29 28 31 31 29 30 29 26 25 27 28 26 25
9 14 16 15 13 10 11 13 14 15 12 8 11 12 11 13 13 12 9 5 5 4 4 7 9 7 3 4 7 11 12 12 12 10 14 22 23 19 20 21 20 18 18 18 18 18 19 23 28 29 30 31 31 33 36 36 35 37 38 37 39 41 39 37 39 40 40 39 36 35 34 31 31 29 27 30 32 30 29 30 29 27 28 30 29 26
10 11 14 13 11 10 10 13 15 16 13 10 11 11 8 9 9 8 7 4 4 5 5 6 7 8 5 6 7 9 10 11 11 9 10 20 24 20 19 20 19 17 16 17 17 17 19 24 28 27 27 30 31 31 34 34 34 35 36 37 38 40 40 38 39 40 39 39 37 36 36 33 31 31 29 29 32 32 30 30 32 30 29 31 30 27
13 11 11 11 12 12 10 12 14 16 15 11 9 8 6 4 5 5 5 5 5 6 6 6 7 7 5 6 8 10 13 15 14 13 12 20 23 21 19 19 18 18 17 16 16 16 16 18 22 24 25 30 31 31 33 35 35 35 36 38 37 38 39 38 39 41 40 39 38 37 37 35 33 32 31 30 31 33 32 30 31 31 29 30 30 28
13 13 10 10 14 15 12 9 10 12 13 11 7 7 6 3 4 5 5 6 6 5 5 6 7 7 5 5 8 10 15 19 18 14 15 22 23 20 19 18 16 16 17 17 16 15 15 15 17 21 25 29 30 32 35 37 37 37 39 40 39 38 40 39 39 41 41 40 39 38 37 36 34 32 33 33 32 33 33 32 31 30 30 30 31 31
9 11 14 13 12 15 15 8 7 9 10 11 8 7 7 5 5 6 4 4 5 5 6 8 7 6 5 5 7 9 11 16 18 15 15 24 25 21 21 20 17 18 18 17 16 16 16 16 16 20 26 30 31 33 35 37 38 37 38 40 40 40 42 42 40 40 42 41 40 39 38 37 36 34 34 34 33 33 34 33 32 30 31 32 32 33
9 9 13 16 9 13 17 12 7 8 8 11 9 6 6 5 4 5 4 4 4 3 6 9 7 4 4 4 5 7 8 9 13 14 14 21 24 22 21 20 19 19 18 16 17 17 18 18 19 21 26 29 31 32 32 34 36 36 37 40 41 40 41 42 41 40 41 42 41 40 39 38 37 36 35 35 35 34 34 35 34 32 31 32 32 32
10 9 10 14 11 12 17 14 9 9 8 8 7 6 7 6 4 3 3 4 3 2 5 7 6 2 3 3 4 7 10 8 9 12 13 19 23 20 18 19 19 18 17 17 16 17 18 19 20 23 25 27 30 31 31 33 36 37 37 39 41 41 40 41 41 40 41 43 42 41 40 39 38 37 35 35 34 34 35 35 36 34 32 32 31 29
8 8 9 14 16 15 16 15 13 10 6 6 9 9 6 6 4 3 2 2 2 2 4 5 6 4 4 5 7 11 14 13 11 10 11 20 26 23 18 19 19 18 17 17 17 17 18 18 20 25 27 27 30 33 33 34 36 37 37 38 39 39 39 40 41 41 41 42 42 42 41 40 39 38 37 36 36 35 34 35 36 36 34 32 31 29
6 6 9 15 18 18 15 15 15 13 7 7 9 8 5 5 6 2 2 3 4 5 4 7 9 7 6 6 7 12 16 16 14 13 10 16 24 24 20 20 20 19 18 18 18 17 17 18 19 24 29 32 35 37 36 34 34 36 36 38 39 39 39 41 41 41 41 41 42 42 41 41 40 40 39 38 38 36 34 33 34 35 35 33 32 31
7 5 8 15 18 16 13 14 14 15 13 8 8 9 6 6 6 4 3 4 6 5 4 8 10 8 8 8 9 12 16 16 15 16 14 13 18 20 19 21 20 19 17 16 16 15 15 17 19 23 29 32 35 36 35 34 34 35 36 38 40 41 42 42 41 41 40 39 39 40 42 43 42 41 40 39 38 37 35 34 33 33 34 34 33 32
9 5 5 13 18 15 11 11 11 12 14 10 8 10 8 5 4 5 4 2 4 4 4 6 8 7 7 10 14 16 15 14 13 14 16 14 17 17 16 18 19 18 17 16 15 16 16 17 20 26 30 31 32 33 34 35 36 36 37 37 39 40 41 41 40 40 39 39 38 38 40 42 42 42 41 40 39 37 37 37 36 34 33 34 34 33
10 7 5 8 15 15 10 10 12 12 12 10 8 9 8 6 3 5 4 3 3 3 3 5 5 5 6 8 15 17 15 15 12 11 13 14 18 19 19 19 18 18 18 17 16 17 17 17 20 26 30 31 33 34 35 35 36 37 37 38 39 40 40 40 40 40 39 39 39 39 39 40 42 42 41 41 40 39 38 38 37 37 35 34 34 34
6 8 7 7 8 11 12 12 13 15 13 11 7 7 10 8 5 6 6 5 5 3 3 4 4 6 5 4 12 17 14 14 13 10 10 13 17 20 20 19 19 18 18 18 18 17 17 16 17 21 27 29 30 32 34 35 35 36 37 38 39 39 40 41 41 41 40 39 40 41 40 40 42 42 41 40 39 39 39 38 38 38 37 35 34 35
7 5 8 8 6 8 13 16 16 17 16 13 9 7 9 10 7 6 5 6 6 5 5 3 3 6 7 6 10 16 12 11 13 11 8 10 14 19 21 19 18 18 18 18 18 17 16 16 16 20 24 27 28 29 33 34 34 36 37 38 38 38 40 41 41 42 41 40 40 41 40 39 40 40 40 39 38 39 39 39 39 38 37 37 36 35
9 4 5 7 6 8 8 12 17 17 15 12 11 9 7 10 10 6 4 6 5 5 6 3 3 5 8 7 4 12 12 11 10 9 9 8 11 18 22 19 17 17 19 19 17 16 15 15 16 17 19 22 26 29 31 32 32 33 34 35 36 38 39 40 41 41 42 41 41 40 40 39 39 40 40 39 39 39 39 38 38 38 38 38 37 36
8 5 3 3 5 6 6 6 13 15 14 9 9 12 10 10 14 9 3 4 5 6 7 3 3 5 7 7 7 9 12 12 9 9 9 9 11 18 21 19 18 17 18 20 17 15 16 15 15 15 15 18 24 27 29 30 30 30 32 33 33 35 38 39 40 40 41 42 41 41 41 40 39 39 40 41 40 39 39 38 37 38 38 38 37 37
7 5 3 2 3 4 4 5 8 11 11 8 9 15 14 12 15 12 5 3 4 7 8 5 3 5 6 6 8 7 8 10 9 7 6 7 10 15 17 18 19 18 18 20 19 17 16 15 15 16 15 17 22 25 28 30 30 30 31 32 32 33 36 37 38 38 40 41 41 41 41 41 40 40 41 42 41 40 39 38 37 37 38 39 38 37
4 6 5 5 5 4 5 5 7 13 13 9 11 15 17 16 13 11 7 4 5 6 6 6 5 3 5 3 3 3 4 6 6 6 6 7 9 11 14 15 16 16 18 20 19 18 17 16 17 18 17 18 21 24 27 29 30 30 30 32 33 33 34 36 37 38 39 40 40 40 41 42 42 42 42 43 42 41 40 39 39 38 38 39 39 38
3 5 6 6 7 8 11 11 5 11 16 16 15 13 17 20 17 10 9 7 6 8 5 7 8 6 4 4 4 4 5 8 9 9 8 7 8 9 14 18 17 14 16 18 18 18 18 16 16 17 16 16 21 25 26 29 31 31 31 33 34 34 34 35 37 37 38 38 39 41 42 43 43 43 43 42 42 41 41 40 40 39 38 39 40 40
4 4 7 9 11 11 12 14 10 4 6 12 17 16 15 21 21 14 10 9 8 8 6 8 10 8 6 6 5 4 7 10 10 10 9 7 9 9 12 18 16 13 14 16 17 17 17 16 15 14 14 15 19 23 25 27 30 31 32 32 34 35 35 35 37 37 37 38 39 41 42 42 42 43 42 41 41 42 42 41 41 40 39 39 40 41
6 5 12 13 11 11 10 11 12 7 1 2 11 15 11 16 23 18 10 9 9 7 7 10 10 5 4 3 4 5 9 10 8 10 10 9 11 12 13 15 15 13 13 14 15 15 15 15 15 14 14 14 16 21 24 25 28 31 31 31 33 35 34 35 36 37 38 38 39 40 41 42 41 41 41 41 41 42 42 41 41 41 40 40 40 40
9 8 15 14 7 6 7 11 15 8 1 2 3 7 4 7 19 20 13 10 8 7 7 9 10 3 2 9 11 9 9 11 10 10 11 10 10 11 12 12 13 13 13 12 12 12 12 13 13 14 14 14 16 20 22 23 27 30 30 30 32 34 35 35 36 38 39 38 39 39 40 40 40 40 41 42 41 42 42 42 41 41 40 40 39 40
11 9 11 11 5 3 3 8 14 9 5 6 4 2 3 3 9 16 13 9 6 8 8 9 10 4 3 10 11 8 10 12 13 12 12 10 10 12 13 11 11 11 11 10 10 10 10 11 12 13 13 13 16 20 22 23 25 28 29 30 31 33 35 34 34 36 39 38 38 39 40 39 40 39 40 41 41 41 42 42 41 40 40 40 39 39
10 9 8 8 6 4 4 7 9 8 6 7 3 0 2 4 4 10 14 12 6 7 7 6 6 7 6 10 10 10 12 11 11 10 10 10 10 12 12 11 9 9 9 9 9 9 9 9 9 10 12 13 16 20 22 24 24 26 29 31 31 31 33 34 33 33 36 38 38 40 41 40 40 40 39 40 41 41 41 41 40 40 40 40 40 39
11 9 6 5 4 5 8 8 5 4 4 3 0 1 2 6 6 3 5 10 7 4 6 8 6 4 9 11 9 11 12 10 9 9 9 9 9 10 12 12 9 7 8 9 9 7 7 7 6 6 9 13 15 17 19 21 21 24 28 30 31 31 31 33 32 31 33 37 38 39 41 41 40 40 40 40 40 39 39 39 39 40 40 39 39 39
11 9 6 4 3 5 7 5 2 1 5 2 2 4 7 8 5 9 14 10 8 7 3 14 13 6 9 12 10 10 11 11 11 13 14 13 12 12 13 13 13 12 11 11 11 9 8 8 8 7 8 8 7 9 14 18 19 20 23 25 27 29 30 32 32 30 31 34 37 38 39 41 41 40 40 39 39 38 38 37 38 39 39 37 38 39
10 7 5 4 4 4 3 1 2 3 6 1 6 10 14 11 6 6 15 17 18 18 11 6 13 11 12 13 11 10 11 13 15 15 16 17 16 14 13 12 13 15 13 11 11 10 8 9 10 9 10 11 10 6 3 9 15 19 21 22 23 24 27 29 31 31 30 32 36 37 38 40 40 39 39 38 37 38 37 37 37 37 37 36 36 38
10 6 4 4 4 3 3 3 3 3 5 2 7 11 12 11 8 3 9 11 18 20 18 10 5 12 14 14 12 11 13 15 14 12 14 16 15 14 13 12 12 13 12 11 11 11 12 14 14 13 12 13 12 11 10 6 4 10 14 19 23 23 23 25 27 29 29 30 34 36 37 38 39 38 38 37 37 37 37 37 37 36 36 35 34 34
11 6 3 3 3 3 4 3 2 2 2 4 11 17 16 15 12 3 12 10 17 19 20 15 8 9 11 12 12 11 13 14 10 8 10 13 12 13 13 12 12 11 10 11 10 12 15 15 13 14 15 15 14 13 12 13 9 4 4 9 17 24 25 23 24 27 27 28 32 35 36 36 38 38 37 37 37 36 35 35 35 35 34 34 34 33
12 8 3 3 3 3 3 2 2 1 1 8 17 20 19 20 14 3 11 8 13 17 18 17 16 14 11 11 12 11 11 10 6 5 8 10 11 12 11 11 11 10 10 12 12 11 15 16 15 16 17 16 16 15 13 14 12 8 6 6 7 15 22 25 26 26 27 27 29 33 35 36 36 37 37 36 36 35 34 34 33 33 33 33 33 33
9 5 3 3 3 4 3 2 2 1 3 12 18 18 20 19 11 4 8 4 10 14 15 16 17 17 14 13 14 12 9 7 5 5 7 9 11 12 12 11 11 10 11 13 15 16 17 18 17 16 16 15 15 14 14 15 15 12 9 8 7 6 13 21 26 29 28 27 27 30 34 35 35 36 36 35 34 33 33 32 31 31 32 32 31 31
3 2 2 2 2 4 4 3 2 1 4 13 17 18 20 15 4 7 6 2 8 10 12 15 16 15 14 12 11 10 8 7 7 8 10 11 12 12 12 12 13 14 15 15 16 17 17 17 16 14 13 14 15 14 15 16 16 16 13 10 9 8 8 11 20 28 29 28 28 29 32 34 34 35 34 34 33 31 31 31 30 30 30 30 29 29
0 1 1 1 2 3 2 3 3 0 6 15 16 17 17 9 4 4 1 4 7 8 11 14 14 14 13 12 10 9 8 9 11 12 13 13 13 12 13 12 12 14 16 16 16 16 14 12 12 12 12 14 15 14 15 16 17 18 15 10 8 9 8 8 14 26 30 29 28 29 31 32 33 33 32 32 31 30 29 29 29 29 29 28 28 28
3 2 2 2 2 2 1 3 3 1 7 17 15 13 13 8 2 1 2 4 8 11 11 11 12 13 13 11 11 10 9 10 11 12 12 12 12 12 12 12 12 11 13 14 14 16 16 10 8 10 12 12 12 13 13 14 17 17 11 6 9 8 6 5 7 22 29 29 28 28 30 31 31 30 30 29 30 29 27 27 27 28 28 28 27 27
5 3 1 2 4 3 2 2 2 1 6 10 9 7 8 6 2 1 2 5 8 10 9 9 11 13 12 11 11 10 10 11 10 10 11 10 10 11 10 10 11 10 11 13 13 16 17 12 7 9 11 11 12 12 11 12 14 12 7 7 11 10 7 6 2 13 24 27 27 27 28 29 29 29 28 28 28 28 26 25 26 27 27 28 27 26
5 2 1 1 1 1 1 2 2 4 5 5 5 4 5 8 7 5 6 5 6 7 7 7 9 12 12 11 10 10 11 12 11 11 10 9 9 10 10 9 10 11 12 13 12 13 15 14 9 8 8 10 12 13 12 10 10 10 9 8 10 9 8 9 5 7 18 22 23 24 25 27 27 27 28 27 27 27 26 25 25 24 25 26 26 25
6 5 2 2 1 2 2 5 2 3 6 6 5 3 4 5 7 6 6 6 5 6 6 7 8 10 11 11 10 10 10 12 13 13 12 10 9 9 9 9 10 12 14 14 11 11 13 14 11 8 8 9 11 13 14 12 10 10 10 8 9 8 7 9 7 5 13 17 19 20 22 25 25 25 26 27 27 27 26 26 25 23 23 23 24 24
5 7 5 5 4 3 2 3 5 7 8 6 5 4 3 3 4 5 5 4 4 5 6 8 8 8 9 10 10 10 10 11 12 12 11 10 9 8 8 8 8 10 13 13 10 9 11 11 10 9 9 8 9 11 13 12 10 10 9 7 8 8 5 6 7 6 10 13 15 16 19 21 23 23 24 25 26 25 25 25 25 23 22 22 22 21
5 7 6 5 5 4 4 6 9 9 7 5 3 3 4 4 5 5 5 4 4 5 7 9 8 7 8 9 9 10 10 10 10 10 9 9 8 7 7 7 7 9 14 16 11 6 6 9 8 7 7 7 9 11 13 11 8 8 7 7 7 7 4 3 4 5 8 11 12 13 14 15 19 23 23 23 24 23 22 22 22 21 20 20 20 20
6 5 4 5 5 5 4 5 8 7 6 7 7 6 7 8 6 6 6 6 5 6 7 7 8 7 7 7 8 8 8 8 8 8 8 8 8 8 7 7 8 10 13 18 14 5 2 6 6 5 7 9 10 14 15 12 8 7 7 7 7 7 4 2 0 3 5 8 10 11 11 10 14 20 22 21 21 20 17 17 19 20 17 15 16 17
6 5 5 5 5 5 6 8 10 8 7 9 9 9 10 10 8 7 6 5 6 5 5 5 6 7 6 6 6 6 6 6 7 8 8 7 7 9 8 8 10 11 13 18 16 6 1 3 4 4 6 9 13 16 16 12 8 6 8 10 10 8 4 2 1 2 4 5 6 10 11 9 11 17 20 21 20 16 13 11 12 14 13 10 9 10
5 7 7 6 5 6 9 11 11 8 7 9 11 12 10 8 8 9 7 5 6 6 4 4 5 6 5 5 5 5 6 6 6 7 8 7 7 9 11 11 11 11 12 15 16 8 2 2 3 4 6 9 14 17 14 11 10 12 13 13 12 11 8 4 2 7 9 9 8 10 11 9 10 13 15 18 19 18 20 19 17 15 15 13 11 11
Wind_Direction
203 225 221 217 209 202 209 220 228 227 227 239 243 224 208 207 229 237 235 241 196 174 198 193 180 193 209 208 161 154 145 145 157 160 168 170 166 170 167 170 172 174 179 179 185 181 172 175 180 182 185 181 177 177 177 178 180 182 182 181 179 179 181 183 182 179 179 181 182 184 186 188 186 185 189 192 197 195 194 201 203 204 204 199 197 195
202 225 227 218 211 208 208 213 225 232 232 237 248 251 224 206 218 227 236 248 215 175 193 192 179 191 201 186 165 157 147 157 168 165 171 175 172 172 166 170 172 171 172 176 184 181 174 175 178 181 182 178 177 178 179 179 182 183 183 182 178 176 179 183 183 179 180 183 183 185 187 187 184 186 191 192 192 193 196 202 201 202 201 198 199 198
205 228 224 213 209 214 213 210 215 227 234 235 243 258 256 232 218 218 233 245 227 182 182 187 184 189 192 182 173 167 157 163 171 171 175 177 175 172 168 170 170 169 172 175 182 181 175 175 175 177 178 179 179 178 180 181 182 184 185 183 179 177 179 183 184 181 181 183 185 186 188 188 185 187 193 192 190 193 198 204 205 203 202 202 203 200
207 225 214 210 210 209 215 215 211 218 231 236 234 240 253 258 251 220 222 238 235 197 168 178 181 178 182 192 186 178 171 165 172 176 174 174 173 172 173 172 168 171 175 175 180 181 176 175 176 177 178 179 179 176 179 181 181 184 186 185 181 179 180 182 184 184 183 183 186 187 187 188 189 190 192 194 195 194 197 204 206 203 203 206 207 203
223 214 188 208 217 207 211 217 214 213 219 230 234 233 238 246 255 256 229 230 235 206 170 163 165 178 182 202 205 183 170 165 173 178 172 172 174 174 174 172 171 174 174 174 178 181 178 177 178 177 176 178 180 178 179 181 181 183 185 185 184 182 181 182 185 185 183 182 184 185 186 188 189 188 190 196 200 198 197 201 201 201 204 206 208 206
232 214 178 201 216 211 211 214 217 216 208 223 231 234 241 241 247 260 255 233 224 209 180 154 154 218 197 199 200 178 170 170 175 181 178 177 176 174 173 172 174 175 175 175 177 180 180 177 176 176 176 178 181 182 182 182 183 183 185 186 186 184 183 184 186 186 185 183 182 182 184 188 185 182 188 194 197 198 198 197 198 200 203 206 209 210
225 219 199 199 207 212 214 214 215 216 214 216 216 224 240 248 249 257 265 252 208 207 191 167 160 214 201 200 195 181 182 180 181 186 184 182 178 175 174 172 174 175 175 177 178 180 181 178 176 175 178 180 182 183 182 182 184 185 186 187 187 186 186 187 188 188 187 185 184 183 185 189 188 184 188 193 194 195 196 196 198 200 203 207 211 212
200 211 217 206 203 208 214 216 210 211 222 216 199 208 226 243 251 256 267 267 235 219 205 185 167 160 198 205 195 187 191 192 192 191 184 183 182 178 176 173 173 175 175 176 179 181 183 182 179 177 181 183 182 180 179 180 183 184 186 187 187 186 186 187 188 189 188 187 185 186 186 190 193 192 190 192 193 194 196 198 200 202 205 208 213 215
191 206 217 213 208 207 208 212 208 210 224 223 204 208 213 225 242 254 264 268 268 285 241 203 174 160 220 223 197 189 193 200 203 197 183 182 183 178 176 173 173 175 175 175 178 181 183 185 184 181 182 183 181 179 180 181 183 184 185 186 186 187 187 188 188 188 189 189 188 187 189 191 196 197 193 191 193 194 196 198 200 205 206 207 213 216
196 204 212 220 219 212 203 201 206 213 221 218 219 225 216 212 225 243 253 271 295 291 253 217 184 171 224 233 199 192 193 195 201 205 183 178 182 178 173 173 173 172 173 175 178 181 183 185 187 184 181 181 180 180 181 182 183 185 185 184 185 186 188 189 189 188 188 190 191 191 192 193 195 196 193 190 191 193 195 198 200 207 208 206 211 214
222 201 201 221 226 218 204 194 200 213 218 211 217 232 233 215 209 224 243 268 296 270 244 240 208 185 203 221 202 192 191 185 190 209 183 169 176 177 172 172 171 169 172 176 177 181 184 184 183 180 177 181 183 182 180 181 183 184 185 185 186 187 188 190 191 191 190 191 193 194 195 196 195 194 191 187 188 190 194 196 199 205 208 206 208 211
234 219 200 208 219 223 216 200 196 203 213 213 207 218 238 232 195 198 223 231 248 255 247 257 248 220 218 226 211 188 184 185 192 204 182 164 171 174 172 172 169 168 170 173 176 179 180 178 177 178 178 181 183 181 180 182 183 184 186 187 187 189 189 190 192 193 194 194 195 196 197 199 197 195 192 189 189 191 194 197 199 201 205 205 206 209
229 234 226 203 205 217 223 209 194 194 202 210 203 193 208 222 190 195 207 211 228 251 254 265 264 243 239 232 213 192 186 191 196 199 175 163 168 169 170 171 168 168 170 171 175 177 176 176 177 180 181 182 184 184 182 183 183 184 186 187 188 190 191 191 192 194 195 195 196 197 198 199 199 197 196 195 193 194 196 198 199 199 202 203 204 207
216 230 236 223 199 203 218 212 188 192 191 200 205 185 189 197 185 195 202 205 226 238 245 267 273 246 244 244 217 207 203 195 196 199 172 163 168 168 167 170 169 170 172 172 175 176 176 178 179 182 181 183 188 188 185 183 184 185 187 188 189 191 192 193 193 194 194 196 197 198 198 199 199 199 198 198 198 197 198 199 200 202 203 204 205 207
213 217 222 227 201 180 209 220 190 182 185 198 205 184 188 196 180 189 191 188 209 204 209 238 256 226 210 225 216 229 240 207 193 200 177 162 168 168 165 169 170 171 173 171 174 177 178 178 178 181 182 183 188 189 186 185 184 185 187 189 191 192 193 194 195 195 195 196 198 199 200 200 200 200 200 200 200 200 200 200 200 203 204 204 206 208
223 226 208 222 225 184 196 217 203 183 186 193 196 195 200 199 177 169 179 172 165 165 189 215 242 230 197 217 207 233 260 248 202 199 177 159 164 168 165 167 171 173 172 171 175 177 179 179 177 180 182 182 184 187 188 187 185 186 187 189 192 193 194 196 197 197 197 198 198 199 200 200 201 202 201 201 201 201 202 202 201 204 205 205 205 206
224 229 193 202 225 213 194 200 207 200 183 169 193 208 191 187 194 150 156 170 163 220 213 210 239 253 259 257 220 213 236 244 229 215 183 161 165 169 168 169 171 172 172 172 175 176 177 178 179 182 183 180 181 187 191 190 187 186 186 188 191 193 195 197 199 201 200 199 199 200 200 201 201 202 202 202 202 202 202 202 203 204 206 207 208 208
241 237 201 194 213 222 202 193 208 215 195 162 189 197 151 187 222 171 151 186 189 220 217 207 220 214 210 237 231 215 219 225 224 219 202 169 165 168 169 172 172 168 170 171 172 174 174 178 181 184 185 184 185 189 191 190 188 187 187 188 189 191 195 198 201 203 203 201 199 200 200 201 202 203 204 204 204 203 202 201 202 204 206 208 209 210
256 251 214 200 203 213 204 191 205 218 213 191 171 167 166 209 212 181 191 189 185 212 222 217 218 207 199 201 208 218 216 215 212 208 206 182 168 169 167 168 170 165 166 170 170 174 175 177 181 184 186 187 187 189 189 189 188 188 188 188 190 193 196 199 201 203 205 205 202 201 201 202 202 203 205 205 205 204 203 203 202 203 205 207 208 209
255 266 231 207 194 194 198 193 198 207 211 209 174 165 188 215 181 173 206 195 182 204 213 221 220 211 212 196 195 209 210 207 205 199 201 187 170 172 164 161 167 165 166 170 171 178 179 177 181 184 185 186 186 187 187 187 188 189 189 189 191 194 197 199 201 203 205 206 206 205 204 203 203 204 205 206 206 205 205 205 205 205 206 207 207 208
245 244 259 229 191 183 195 200 194 189 196 208 195 175 185 195 167 174 210 222 208 216 202 216 236 233 231 201 190 198 202 201 197 187 194 183 166 170 169 164 168 168 168 171 174 179 180 179 181 183 183 183 184 186 187 188 189 189 189 190 191 193 196 199 201 203 205 206 208 208 207 206 205 205 206 206 206 207 207 207 207 208 209 208 208 208
264 235 251 256 208 192 197 193 186 184 190 205 206 182 178 184 179 178 204 218 211 237 224 203 240 251 255 223 189 192 195 192 186 174 181 183 169 168 171 169 169 169 170 172 175 179 180 180 180 179 180 183 183 184 187 189 189 189 190 191 191 193 195 198 201 203 205 206 208 209 209 208 207 207 207 207 207 208 209 209 209 210 210 210 210 209
318 255 240 246 253 233 204 183 175 182 190 202 214 201 177 181 189 180 192 202 200 234 246 236 259 261 273 265 193 183 177 168 172 170 169 185 175 167 171 170 166 169 174 175 175 177 179 180 178 177 180 184 183 184 187 190 190 190 191 191 190 192 195 198 200 202 205 206 208 210 211 210 209 208 208 208 208 208 209 210 210 210 210 210 211 211
332 297 244 243 260 272 238 183 170 179 190 201 213 213 193 185 188 184 178 178 183 219 230 250 281 265 287 305 147 151 149 144 160 170 171 189 176 164 168 168 163 167 176 179 176 175 176 175 173 175 181 185 186 187 190 192 192 192 192 191 192 193 195 197 200 202 203 206 208 210 211 211 210 209 209 209 209 210 210 210 211 210 211 211 211 211
313 304 301 268 231 240 256 195 171 179 190 201 204 208 218 195 179 187 210 169 179 215 207 205 252 250 287 336 54 103 127 139 162 181 181 183 168 162 166 167 165 167 173 177 175 171 171 170 171 176 181 186 187 188 190 191 193 193 193 193 192 193 196 197 199 200 203 205 207 208 210 211 210 209 209 209 210 210 210 210 211 211 211 211 211 211
277 284 300 279 225 211 226 207 184 180 186 202 198 198 218 214 183 183 199 165 185 215 205 196 226 256 295 355 46 71 109 141 167 179 167 148 143 157 166 168 169 167 166 170 169 168 171 171 174 178 181 186 185 183 186 189 193 195 193 193 192 193 195 197 199 201 203 205 206 207 208 209 209 209 209 210 210 210 210 210 210 211 210 211 211 211
252 261 257 229 236 246 254 248 197 172 173 196 203 192 204 219 205 178 173 193 188 181 201 206 186 222 287 342 64 105 119 119 118 105 99 98 110 140 164 173 174 165 161 165 165 168 172 172 176 179 180 184 181 178 181 186 193 194 191 192 193 193 193 196 199 201 203 205 206 207 208 208 209 209 209 210 209 209 210 210 210 210 210 211 211 211
283 277 281 263 262 258 266 286 261 173 172 187 202 200 193 206 219 201 179 195 164 142 207 224 165 160 249 259 233 203 140 108 102 99 97 104 107 129 163 173 172 160 157 162 163 166 168 169 174 176 176 178 178 179 183 187 192 193 191 191 193 193 194 195 198 200 202 204 205 207 209 208 209 209 209 209 209 208 209 210 210 210 211 211 211 211
311 287 312 306 298 292 280 284 286 239 172 181 200 211 194 193 213 218 191 181 158 143 199 203 158 161 216 232 242 210 129 113 114 109 99 100 99 110 149 159 156 150 155 161 161 163 166 168 170 171 172 174 177 182 188 190 191 191 191 192 192 194 196 195 196 199 201 203 205 207 209 209 209 209 209 208 208 208 209 209 210 210 211 211 211 212
312 317 336 323 299 301 304 289 281 277 16 126 200 214 208 191 203 216 210 186 169 160 186 174 151 167 207 131 78 89 110 106 103 104 95 88 92 105 129 137 134 141 152 158 160 162 166 168 167 168 171 175 181 187 190 189 188 188 190 191 192 195 197 196 196 198 200 203 205 206 208 209 209 208 208 208 208 208 208 209 209 209 210 211 212 212
319 333 334 328 303 298 325 310 296 287 340 2 220 219 255 206 198 208 217 204 178 173 181 142 112 93 87 94 83 77 89 85 73 80 85 80 79 89 107 118 122 133 143 147 154 159 163 164 165 170 175 178 183 188 189 185 184 186 189 191 194 196 197 198 197 198 200 202 204 205 206 207 208 208 208 208 208 208 208 208 208 209 209 210 211 212
324 332 330 335 336 318 314 289 292 308 314 288 266 237 335 314 206 201 207 213 183 172 169 120 108 140 122 96 91 72 69 76 72 70 76 75 67 72 83 92 98 111 124 130 136 144 153 159 162 168 176 181 183 186 186 181 180 185 189 192 195 197 198 201 200 200 201 202 201 202 204 205 206 207 208 208 208 208 208 208 208 208 209 209 210 211
318 327 338 345 338 330 319 281 287 319 304 266 263 308 28 349 272 198 198 217 197 155 159 139 150 182 141 97 93 83 71 73 78 79 81 75 66 68 74 77 85 103 113 115 119 132 141 147 151 159 169 175 177 181 185 182 180 184 190 193 196 197 199 203 204 202 201 202 200 200 201 203 204 206 208 208 209 209 209 208 208 209 209 209 209 209
310 316 329 340 322 313 320 311 320 341 285 229 91 341 35 18 9 98 177 229 222 156 142 136 134 151 120 101 99 99 89 82 84 82 77 72 66 65 63 59 62 79 93 95 97 107 117 117 117 126 145 160 168 173 180 184 185 187 191 194 196 198 200 203 207 206 202 201 201 200 199 201 202 204 206 208 209 209 209 209 209 210 210 210 209 209
305 313 317 324 294 292 319 343 39 295 264 205 98 18 13 5 9 62 49 15 345 349 81 125 121 110 104 99 99 102 95 84 72 60 55 55 57 64 64 59 57 59 61 65 64 66 76 83 80 71 79 102 128 163 180 189 193 192 194 196 197 199 201 203 206 208 205 202 202 201 199 199 201 202 204 206 207 208 209 210 210 211 211 210 210 211
289 303 314 313 297 300 335 350 181 248 281 241 76 33 11 345 315 63 51 25 8 0 1 102 124 114 97 92 93 96 90 78 64 51 48 49 51 56 57 56 63 65 60 56 54 50 50 58 62 57 53 52 49 54 158 199 204 201 201 202 203 204 205 204 206 208 206 202 201 201 199 199 199 201 203 203 204 206 207 209 211 212 212 212 213 214
272 291 322 317 318 350 339 278 228 274 313 10 42 13 348 318 306 88 83 24 9 10 359 349 103 110 100 97 98 94 82 70 56 41 38 44 48 52 51 49 57 67 64 55 52 44 36 40 45 43 39 37 34 28 18 3 241 217 214 210 208 209 210 209 208 208 206 203 201 201 200 199 199 200 201 201 202 205 206 207 210 211 211 212 214 216
256 263 298 307 320 349 331 304 279 278 297 1 352 341 329 311 307 88 96 36 2 8 3 353 14 74 93 103 103 95 79 66 54 33 29 37 43 46 49 46 43 56 65 57 51 41 30 31 37 39 41 37 29 20 10 7 5 340 289 237 217 212 210 212 212 211 208 204 202 201 201 200 200 199 200 201 202 204 205 207 209 210 211 212 214 217
247 249 262 282 293 312 318 347 337 291 49 358 341 336 329 315 307 46 88 39 351 356 3 6 16 30 53 74 76 78 79 71 63 37 26 35 38 37 47 46 32 37 50 48 49 43 34 36 39 42 47 39 20 10 1 354 354 353 339 314 254 220 212 212 212 211 211 209 204 202 201 201 201 200 200 201 202 203 204 205 207 209 210 212 215 218
244 251 253 252 269 298 300 318 339 44 16 345 339 337 325 309 304 49 77 26 336 347 2 13 22 25 33 50 59 63 71 74 71 47 35 43 44 37 40 40 29 26 29 33 41 42 38 42 38 32 36 28 10 7 3 353 347 341 331 326 319 271 231 222 215 210 212 212 207 203 201 200 201 201 201 201 202 202 203 204 205 206 208 211 214 217
242 252 248 248 292 318 321 333 343 100 1 342 343 344 334 319 338 61 74 275 306 344 12 17 21 25 25 39 56 59 58 58 54 44 38 41 45 42 38 33 28 22 12 19 40 40 32 36 33 19 19 21 12 6 360 351 344 336 323 313 316 314 296 258 227 212 210 210 206 202 200 200 200 200 201 201 201 201 202 203 203 204 206 210 213 216
330 292 309 306 299 309 347 355 338 49 355 344 346 354 356 4 55 52 44 265 310 5 26 19 20 22 19 32 51 57 57 52 45 43 38 33 35 38 35 28 26 19 6 13 37 35 22 34 35 13 12 22 13 357 350 347 340 327 314 311 324 323 321 301 236 213 207 205 203 201 199 199 199 199 199 199 198 198 199 200 201 203 206 208 211 214
12 337 330 349 333 328 38 22 14 42 342 342 351 8 17 33 85 278 306 336 2 20 24 19 21 20 17 26 34 40 50 48 47 48 41 32 31 33 30 22 18 14 4 8 23 20 10 23 37 15 16 23 6 349 346 343 333 322 313 339 1 352 344 337 238 211 204 200 198 198 196 196 197 195 194 195 195 195 196 197 199 203 206 209 211 214
19 3 350 7 2 10 46 38 25 270 307 342 13 30 10 5 40 115 36 10 10 17 18 17 16 13 17 24 20 23 32 34 41 51 43 34 32 30 30 24 15 8 360 1 15 14 0 358 23 29 21 13 359 349 348 347 341 344 9 29 11 4 17 19 312 209 202 197 193 193 192 192 192 192 191 191 192 193 194 195 199 203 206 209 210 212
359 1 169 217 340 23 295 263 260 263 288 348 40 55 11 359 6 44 62 39 11 7 12 15 11 8 13 17 13 17 21 18 24 34 34 34 33 26 24 23 16 3 348 349 8 14 356 348 6 29 23 7 0 356 354 357 357 359 9 13 4 8 26 27 21 199 197 192 187 186 187 186 186 187 188 188 190 192 194 196 199 203 205 207 208 211
345 8 15 285 316 10 280 245 238 333 333 349 16 43 44 17 0 14 50 54 21 3 7 14 11 6 8 11 11 14 17 16 16 16 16 21 28 27 18 13 10 358 344 343 1 10 360 352 356 14 25 13 360 354 355 0 4 360 358 0 359 360 17 32 44 155 184 184 180 178 179 181 182 182 185 188 190 192 196 198 201 204 206 206 208 210
352 18 4 323 338 9 332 315 355 347 326 331 3 8 359 20 32 27 40 56 37 13 13 12 9 8 9 9 9 8 10 18 18 11 7 8 13 20 15 2 356 346 334 332 346 3 2 356 354 13 28 11 347 345 350 353 358 1 359 359 357 351 358 33 52 101 150 162 168 169 169 174 180 181 182 186 188 192 196 199 202 204 206 206 206 208
343 9 356 329 336 340 311 314 324 311 287 293 331 337 332 10 46 35 18 34 48 36 22 8 2 11 13 7 7 5 5 15 18 9 3 2 358 3 6 349 338 336 326 321 326 350 4 353 354 13 14 351 334 335 335 334 344 354 351 346 347 343 332 353 44 79 117 136 148 156 159 166 176 181 182 183 185 188 192 195 200 203 205 208 209 207
312 331 321 309 317 311 293 316 333 328 314 321 338 355 356 359 14 16 6 12 30 44 38 11 355 7 16 7 3 1 358 7 13 4 359 358 350 349 351 334 326 326 320 316 316 314 334 338 349 8 351 338 337 332 321 314 323 349 4 0 345 332 311 276 28 74 111 128 137 153 161 162 171 177 176 175 177 180 183 190 200 202 200 202 207 209
318 337 338 333 327 316 323 351 3 354 326 317 331 349 354 351 352 353 356 4 11 28 50 32 353 352 6 3 353 351 350 354 0 358 356 352 344 343 343 329 320 316 315 318 320 315 281 336 348 357 339 336 340 335 322 310 314 353 30 31 16 7 358 286 250 107 129 137 146 165 173 172 169 172 173 172 168 159 147 156 180 186 176 166 172 186
12 5 358 352 329 309 320 339 347 336 311 312 324 330 334 340 342 337 338 360 2 355 22 43 5 339 340 343 340 342 345 345 351 357 352 339 331 336 337 329 318 309 310 322 328 330 322 305 317 336 347 355 0 360 1 11 22 31 41 40 30 24 20 13 67 93 98 102 112 134 151 160 153 147 157 169 164 140 118 109 109 116 119 116 118 128
Height
716 731 733 729 729 727 727 726 727 728 728 729 729 730 731 734 733 718 709 695 689 713 724 717 723 725 720 716 712 712 715 723 730 733 735 737 739 742 744 747 748 751 751 751 754 756 759 762 766 770 773 775 778 781 784 786 789 792 794 797 799 801 805 808 810 812 815 817 819 821 823 824 826 828 830 831 833 834 835 836 837 838 839 841 842 844
717 732 727 718 719 718 719 722 722 725 726 726 728 728 726 727 726 711 703 693 685 708 721 711 718 722 715 713 708 707 718 726 728 732 735 735 736 738 741 744 745 747 747 749 752 753 756 759 762 766 769 772 775 778 781 784 786 790 792 794 797 799 802 805 808 809 812 814 816 818 820 822 824 826 828 829 831 833 834 834 835 837 838 840 841 843
727 725 714 710 712 712 715 717 720 725 725 726 727 730 731 723 717 709 698 690 684 701 716 711 717 720 710 708 706 705 714 720 718 722 727 729 733 736 738 741 743 745 747 747 749 750 752 755 759 762 765 768 772 775 778 781 784 787 790 792 794 797 799 803 806 807 809 812 814 817 819 821 823 825 827 828 830 832 833 833 834 835 837 838 839 841
728 714 705 706 706 710 717 714 718 724 724 726 725 730 733 721 719 720 704 691 685 691 704 708 714 716 708 706 706 702 705 710 710 712 716 721 726 730 731 734 737 741 744 745 746 747 749 752 755 758 761 764 768 772 775 778 781 784 787 789 792 795 797 800 803 806 808 811 813 817 819 821 823 824 826 828 829 830 831 831 832 833 835 836 838 840
714 700 697 703 704 708 716 715 716 724 727 724 720 724 727 718 716 717 703 691 688 689 691 702 721 722 712 715 713 703 701 707 708 709 713 716 719 722 724 727 731 734 737 740 742 743 745 747 750 753 757 761 765 768 771 773 777 780 783 786 789 792 795 798 801 804 807 810 812 815 818 821 822 824 826 826 827 828 829 829 830 832 833 835 836 838
705 693 691 702 705 705 712 715 713 718 726 725 717 714 714 712 710 707 700 697 706 712 694 700 739 742 717 715 716 707 707 711 710 710 713 714 714 718 722 725 727 729 731 733 735 738 740 743 747 751 754 757 761 763 767 770 773 776 780 783 787 790 793 796 798 802 805 807 810 812 815 817 818 820 821 822 822 824 826 827 828 830 831 833 835 836
697 689 689 698 704 704 709 712 707 708 722 727 713 704 704 705 707 705 702 704 718 722 696 691 732 747 726 716 711 705 709 712 711 711 710 710 713 715 718 721 723 726 729 731 732 734 736 739 743 747 750 752 755 759 763 767 771 774 777 780 784 787 790 793 796 799 802 804 807 809 810 812 814 815 816 818 820 822 824 825 827 828 829 831 832 834
689 691 692 693 698 704 708 709 702 699 716 720 701 696 703 703 706 705 702 708 709 706 697 689 706 734 736 719 703 699 707 710 707 708 708 707 710 712 712 715 718 721 725 728 732 732 733 735 738 742 745 747 751 756 761 765 768 771 774 777 781 784 788 791 794 796 799 801 803 805 808 809 811 812 814 816 818 820 822 824 825 826 827 829 830 832
681 691 692 690 697 702 701 699 693 694 708 706 690 690 696 698 703 701 702 709 702 705 718 703 697 728 738 714 697 698 706 711 707 703 705 706 707 708 708 710 712 714 717 721 725 728 729 731 734 737 740 744 749 753 757 761 765 768 771 774 778 781 785 788 791 793 796 798 800 803 805 807 809 810 812 814 816 819 820 822 823 824 825 827 828 830
678 680 681 685 692 693 689 686 684 691 699 692 684 687 689 692 696 698 705 709 706 719 731 711 699 725 736 714 703 706 707 709 705 697 697 700 702 703 703 705 708 710 713 716 719 722 724 726 730 734 739 743 747 750 754 758 763 766 769 772 775 778 782 785 788 791 793 796 798 800 802 804 806 808 811 813 814 816 818 819 821 822 823 824 826 828
670 666 669 675 679 678 676 677 677 682 685 682 685 692 694 694 695 700 703 707 722 734 727 709 699 715 732 719 704 703 698 695 696 692 692 695 698 699 699 701 704 707 710 713 716 718 721 724 728 734 738 742 745 748 752 756 760 764 767 770 773 776 779 782 785 788 790 793 795 797 799 801 803 806 808 810 811 813 815 816 818 819 821 822 824 826
673 671 669 665 664 665 669 674 672 672 675 681 690 698 707 708 704 712 713 715 739 745 721 705 698 708 729 719 695 688 682 678 683 685 688 694 697 696 697 698 699 703 706 709 713 717 720 724 727 731 735 739 743 746 748 752 756 761 764 767 770 773 776 779 782 785 787 790 793 795 797 799 801 803 805 806 808 810 812 814 815 817 819 821 822 824
679 674 667 661 658 658 670 679 677 674 675 684 693 702 722 729 726 736 737 731 742 738 711 699 702 711 718 702 682 679 674 669 669 670 676 686 692 693 694 695 695 698 702 706 710 713 717 721 723 726 730 734 738 741 743 747 750 755 759 763 766 770 773 776 779 781 784 787 790 792 795 797 799 801 802 803 805 807 809 811 813 815 817 818 820 821
689 679 666 664 660 652 663 679 686 685 681 688 694 703 723 736 742 752 748 738 739 729 706 696 704 713 710 689 671 668 666 662 659 659 664 672 680 685 686 688 691 694 697 701 704 708 711 715 717 720 725 729 733 736 739 742 746 750 754 758 762 765 768 772 775 777 781 783 786 789 792 794 797 798 800 801 802 804 806 808 811 812 814 815 817 818
699 695 671 664 661 652 657 665 671 676 680 683 680 690 709 717 730 743 740 739 738 726 712 707 709 711 708 688 664 656 654 653 655 655 656 663 669 674 678 682 687 690 693 696 699 703 705 707 712 716 720 724 729 733 737 740 743 747 751 754 758 761 765 769 772 774 777 779 783 786 789 791 793 795 797 799 800 802 804 806 808 810 812 813 814 816
691 689 661 653 651 647 655 655 650 664 682 680 671 686 700 695 702 717 719 717 720 723 720 714 706 694 685 672 654 653 652 649 654 653 654 664 667 670 677 681 684 686 689 692 695 698 701 703 707 712 716 721 726 731 734 736 739 742 746 751 754 758 763 766 769 772 773 776 779 782 785 788 790 793 795 796 798 800 801 803 805 807 809 811 812 814
686 680 653 649 650 642 648 648 643 657 676 677 677 687 683 674 685 706 714 705 709 730 726 709 703 692 684 677 659 657 659 653 653 653 654 660 663 668 675 676 679 682 683 686 689 693 697 700 703 707 711 716 721 725 728 731 734 738 743 747 752 756 761 765 768 770 771 773 776 778 782 785 787 790 791 793 795 797 799 801 803 805 807 809 811 813
675 677 652 646 655 643 634 641 642 642 653 671 683 679 670 674 681 694 715 719 724 741 725 702 705 704 704 697 671 661 665 659 654 653 653 657 659 664 668 670 672 674 677 680 683 687 692 695 699 702 706 710 713 717 722 728 732 736 740 744 748 753 757 761 764 767 770 771 773 775 778 781 784 786 788 790 792 794 797 799 800 803 805 807 809 811
662 677 658 639 648 643 629 644 656 643 637 653 664 661 670 695 699 696 712 724 732 740 724 703 700 698 699 693 672 666 667 660 654 651 651 657 660 661 664 666 669 670 675 679 681 685 688 691 695 698 702 706 710 715 720 725 730 734 737 740 744 748 751 756 761 764 768 770 771 773 774 777 780 783 785 787 790 792 794 796 798 800 802 804 806 808
656 676 669 637 631 639 638 648 664 659 644 644 652 656 665 682 692 694 698 704 715 727 721 710 704 692 680 669 661 661 656 651 653 651 649 652 656 658 660 664 667 669 673 676 679 683 684 687 690 693 698 703 708 713 717 721 725 728 733 736 740 744 748 754 758 762 765 768 770 771 772 775 777 779 782 784 787 789 790 792 794 797 799 801 803 805
653 668 674 647 627 639 648 645 650 656 655 655 662 668 670 672 676 684 688 687 696 712 714 711 709 687 656 643 645 647 643 641 643 645 645 645 648 653 654 658 662 664 668 671 674 677 680 683 686 690 695 699 703 708 712 716 719 723 728 731 734 739 744 750 754 758 761 764 767 769 770 772 774 776 778 780 783 785 787 789 791 793 795 797 800 802
661 662 668 660 644 644 643 630 629 639 645 653 660 664 668 671 677 693 702 688 682 696 699 700 706 681 641 628 631 631 632 632 632 637 641 640 642 648 649 652 656 659 663 666 669 672 676 679 683 688 692 695 699 703 707 711 715 718 722 724 728 734 739 744 749 753 757 760 763 764 766 769 771 773 775 778 780 782 784 786 788 790 793 794 796 798
667 661 660 661 651 640 629 617 620 628 632 641 649 650 654 662 672 692 706 693 683 687 682 685 699 676 635 620 620 619 623 625 625 630 635 636 637 641 645 647 651 655 659 661 664 668 671 674 679 684 688 692 695 699 703 707 710 713 716 719 724 728 733 739 744 748 753 756 759 761 763 766 768 771 773 775 777 779 780 783 784 787 789 791 793 795
671 662 660 661 650 637 624 614 615 620 630 643 646 642 646 654 659 669 678 678 683 688 682 691 702 675 634 616 612 613 617 620 622 625 630 633 634 637 642 645 650 654 656 658 661 664 668 672 677 682 686 689 692 696 700 703 706 710 713 716 720 724 729 735 739 744 748 751 754 757 761 763 765 768 770 772 773 775 777 779 781 784 786 788 790 792
689 676 672 674 668 659 650 642 636 631 634 644 644 640 642 644 650 658 661 666 681 684 679 693 702 674 638 620 615 616 619 622 623 623 624 629 631 634 638 641 647 652 655 657 659 663 667 671 675 679 681 684 688 692 695 699 703 707 710 714 717 721 726 731 735 740 743 746 749 753 755 758 761 763 765 767 769 771 774 776 778 780 782 784 786 788
698 688 684 687 687 681 674 666 654 642 639 641 640 640 642 641 647 658 665 675 686 680 673 684 689 668 643 629 624 623 624 627 626 622 621 624 629 633 636 639 642 647 652 655 658 662 666 668 672 674 676 679 683 688 692 696 700 703 707 711 715 719 723 728 732 736 739 742 745 748 750 753 756 758 760 762 765 767 770 772 774 776 778 780 782 784
691 683 679 683 685 678 669 655 637 630 640 646 643 641 642 642 643 650 666 678 678 677 678 675 669 665 654 641 635 629 628 632 632 629 628 628 629 632 636 639 640 642 647 650 654 660 663 666 669 670 672 675 679 684 689 693 696 700 703 707 711 716 720 724 728 731 735 738 741 743 745 748 750 752 754 757 760 763 766 768 770 772 774 776 778 780
690 686 676 671 671 663 653 643 628 624 634 641 642 642 641 641 642 650 664 666 661 675 686 668 656 664 660 645 639 633 631 636 636 633 633 631 628 630 633 638 641 644 646 648 653 658 661 665 668 669 671 674 677 682 686 689 693 696 700 703 707 712 715 719 723 727 730 733 736 738 740 742 745 747 749 753 756 759 761 763 766 768 770 772 774 776
695 691 677 667 664 655 645 640 633 629 631 633 636 638 638 639 643 649 655 651 651 668 676 662 655 661 654 642 639 634 632 636 635 631 630 629 628 630 633 638 643 647 649 651 653 656 660 663 666 669 671 673 676 680 683 686 690 693 696 699 702 707 710 714 718 721 725 728 730 733 735 738 741 743 746 749 751 754 756 758 761 763 765 767 769 771
699 692 680 672 666 655 648 643 636 633 635 635 635 634 634 636 638 643 647 643 644 653 655 654 658 658 648 642 639 634 630 631 630 628 629 631 632 634 636 640 644 648 650 653 654 656 658 661 663 667 670 672 675 678 681 684 686 689 693 696 699 703 706 709 713 716 719 722 724 728 731 734 737 739 742 744 746 748 751 753 756 758 761 763 765 767
703 698 687 678 672 662 655 651 643 636 638 641 640 636 636 637 636 639 643 641 643 648 646 651 663 664 650 638 635 634 630 630 635 636 636 638 637 637 640 644 646 649 651 653 655 657 658 660 663 666 669 671 673 675 678 681 683 686 689 692 695 698 701 705 707 710 713 716 719 724 727 730 733 735 737 739 741 744 746 749 751 753 756 758 760 763
708 702 690 683 685 675 661 658 651 639 640 646 646 641 641 643 641 637 637 638 641 646 648 655 668 668 651 636 635 639 636 637 643 644 643 643 640 640 644 648 649 651 653 655 656 658 659 661 663 665 667 668 670 673 676 678 680 683 686 689 692 694 698 701 702 705 708 711 715 719 722 725 728 731 733 735 737 739 741 744 747 750 752 754 756 758
713 708 698 697 700 684 664 659 653 650 661 663 649 639 639 641 639 633 632 632 632 637 648 658 661 656 644 638 642 645 644 645 647 646 646 646 643 643 646 649 651 652 653 655 656 658 659 660 661 662 663 665 668 670 673 675 677 680 682 685 688 691 694 696 698 701 703 706 710 712 716 720 723 726 728 730 733 735 738 741 743 745 748 749 752 754
716 711 705 705 708 696 675 662 660 674 685 666 636 627 631 635 639 641 641 635 628 628 635 644 649 645 639 640 647 649 648 647 646 644 644 644 645 649 651 651 652 652 653 655 656 657 659 659 660 661 662 664 667 669 671 674 676 678 680 683 685 688 690 693 695 697 699 702 705 707 711 715 717 720 724 726 729 732 734 737 739 741 743 745 748 750
719 713 708 705 705 698 682 676 687 697 680 645 624 622 625 629 633 642 651 650 644 641 636 636 643 644 640 641 645 647 646 644 643 645 645 645 646 651 655 656 656 656 658 659 659 660 661 661 662 663 664 666 667 668 671 673 674 677 679 681 683 685 687 689 691 693 695 698 701 703 706 709 712 715 718 722 726 728 731 733 735 737 740 742 744 745
719 714 711 707 703 697 692 693 698 685 652 628 628 633 636 638 635 642 662 670 665 661 654 645 642 641 640 641 643 644 644 643 646 650 650 650 650 652 657 660 659 661 663 663 663 663 662 662 662 664 665 667 668 669 671 672 674 675 677 678 681 682 684 686 687 689 691 694 696 700 702 705 708 711 714 718 721 723 726 729 731 734 736 739 740 741
713 713 714 713 706 704 707 699 680 664 652 648 655 660 662 660 646 645 669 682 672 666 665 657 647 642 641 642 642 643 643 648 660 664 659 656 656 656 658 660 660 662 663 663 664 664 664 664 664 665 666 667 668 670 671 672 674 674 676 677 678 679 681 683 684 685 688 690 692 696 698 701 704 707 710 714 716 718 721 724 727 730 733 735 737 738
707 709 713 716 711 707 712 705 685 678 681 681 681 672 662 657 643 635 661 687 681 671 670 665 655 647 643 643 644 644 649 665 682 682 669 663 662 661 661 661 661 662 664 664 665 666 666 667 666 667 668 668 669 670 671 673 674 674 675 676 676 677 678 679 681 683 684 686 689 692 695 698 700 703 706 709 711 714 717 720 723 726 729 731 733 735
706 703 704 714 715 708 712 714 703 696 695 693 688 671 657 655 640 630 664 701 695 679 677 672 665 658 652 651 651 652 664 686 697 689 675 669 667 665 666 667 664 664 665 666 668 669 670 670 669 670 671 671 672 672 671 672 673 674 675 675 675 676 675 675 677 679 681 684 686 688 691 694 696 699 702 704 707 710 713 716 719 722 725 727 729 731
709 706 706 714 717 710 710 711 705 702 702 695 686 674 661 649 634 644 692 719 701 685 684 679 674 671 664 661 662 666 679 693 695 687 677 672 671 670 669 670 670 668 668 668 669 670 671 672 672 673 674 674 675 674 673 673 673 673 674 674 674 674 674 674 674 676 678 681 683 685 688 690 693 696 698 701 704 707 710 713 716 719 721 724 726 728
712 710 710 714 715 711 713 712 706 705 704 694 687 677 658 645 653 686 720 720 698 690 689 682 680 679 674 671 672 678 685 687 684 681 676 673 675 675 673 674 674 672 672 672 672 673 673 674 675 675 676 677 676 676 675 675 674 673 673 673 673 673 673 672 672 673 676 677 679 682 684 686 689 692 695 699 702 705 708 710 713 716 718 720 723 725
718 716 713 713 715 713 713 715 713 711 702 691 688 679 663 670 700 719 717 706 697 693 689 685 685 683 680 679 680 682 685 682 680 680 679 678 679 679 678 678 678 677 676 676 676 677 676 677 678 678 678 678 678 678 677 676 676 674 672 673 673 672 671 670 670 671 672 674 676 678 681 684 686 689 693 696 699 702 705 707 710 713 715 717 720 721
723 724 720 716 714 713 714 720 727 726 711 695 693 692 689 702 721 718 706 702 699 692 690 690 688 686 686 687 686 686 686 684 683 683 683 682 682 682 682 682 682 682 682 680 681 681 680 680 680 680 680 680 680 680 679 678 677 674 673 672 672 671 670 669 668 668 669 671 673 675 678 681 684 687 690 693 696 699 702 705 708 710 712 714 716 718
725 730 733 729 724 725 730 732 732 728 716 704 705 712 712 712 712 708 707 707 701 695 695 695 692 690 690 690 691 690 689 688 687 686 686 687 686 686 687 686 686 687 686 686 686 685 683 684 683 682 682 682 681 681 680 679 678 675 673 673 672 671 669 668 667 667 668 670 672 673 676 679 682 685 688 691 694 697 700 703 705 707 709 711 713 715
729 728 732 733 729 728 731 728 721 718 714 708 709 713 713 710 707 706 707 708 705 702 700 698 697 696 693 693 694 692 690 690 689 687 688 688 688 688 689 689 690 691 690 690 689 688 687 686 685 684 684 683 683 682 681 680 679 677 675 674 673 671 670 668 667 667 668 670 671 673 675 678 680 683 686 689 692 695 698 701 703 705 707 709 710 712
726 723 725 727 725 722 720 716 713 715 713 709 709 710 709 709 709 707 706 708 709 705 702 701 701 699 697 698 697 695 694 693 691 690 689 689 689 690 690 691 692 693 693 692 691 690 689 688 686 686 685 684 684 684 682 681 680 678 676 675 673 672 671 669 668 668 669 670 671 673 675 677 680 682 685 688 690 693 696 699 701 703 705 706 708 710
726 724 726 726 725 727 725 717 713 715 713 709 709 711 709 707 707 707 708 709 708 706 704 704 703 702 701 701 701 700 698 695 695 696 694 693 694 693 692 693 694 695 695 694 693 692 690 689 688 687 686 686 685 684 683 682 680 678 677 676 674 673 672 671 670 670 670 671 672 674 675 677 679 682 684 687 689 692 694 697 699 701 703 704 706 707
730 727 729 728 727 729 729 721 715 713 710 707 709 712 710 709 708 707 707 707 707 707 707 705 704 705 705 704 704 704 702 700 701 701 700 699 699 697 696 696 696 696 696 695 693 692 691 690 689 688 687 687 686 684 683 682 680 679 678 676 675 675 673 672 672 671 671 672 673 674 676 678 680 682 684 686 688 691 693 696 697 699 701 702 703 704
731 731 731 729 728 727 725 721 718 716 713 710 712 713 712 711 710 708 708 708 708 709 710 709 708 707 707 708 708 707 706 705 704 703 703 702 701 700 699 698 697 697 697 695 693 692 691 690 690 689 688 687 686 685 683 682 680 680 678 677 676 675 674 674 673 672 673 673 674 675 677 678 680 681 683 686 688 691 693 695 696 698 699 700 702 703
735 739 736 734 737 736 730 727 729 732 729 721 717 715 714 712 712 711 710 709 709 710 711 712 711 710 710 710 710 709 709 707 705 704 704 703 702 702 701 700 699 698 697 695 693 692 691 690 690 688 688 687 686 685 683 682 681 680 679 678 677 675 675 674 674 673 673 674 674 675 677 678 680 681 683 685 688 690 692 694 695 697 698 700 701 702
744 749 747 747 750 745 737 733 734 736 734 727 721 718 715 713 713 713 712 710 709 709 709 711 712 712 711 711 710 709 708 707 705 704 704 704 704 702 702 701 701 699 697 696 694 692 690 690 689 688 688 687 687 685 684 683 682 681 680 679 677 677 676 675 674 674 674 674 675 676 677 678 680 681 682 685 687 689 691 693 696 698 699 701 702 702